Regional Weather Roundup
Issued by NWS

Home | Current Version | Previous Version | Text Only | Print | Product List | Glossary On
Versions: 1 2 3 4 5 6 7 8 9 10 11 12 13 14 15 16 17 18 19 20 21 22 23 24 25 26 27 28 29 30 31 32 33 34 35 36 37 38 39 40 41 42 43 44 45 46 47 48 49 50
000
ASUS44 KLUB 270610
RWRTX
WEST TEXAS WEATHER ROUNDUP
NATIONAL WEATHER SERVICE LUBBOCK TX
100 AM CDT FRI MAR 27 2015

NOTE: "FAIR" INDICATES FEW OR NO CLOUDS BELOW 12,000 FEET WITH NO
SIGNIFICANT WEATHER AND/OR OBSTRUCTIONS TO VISIBILITY.

TXZ004-006>008-010-012-014-016-OKZ002-270700-
TEXAS PANHANDLE/OKLAHOMA PANHANDLE

CITY           SKY/WX    TMP DP  RH WIND       PRES   REMARKS
AMARILLO       CLEAR     48  20  32 N3        30.19R
BORGER         CLOUDY    52  22  30 SW6       30.17S
CANADIAN       CLEAR     41  31  65 S3        30.14S
DALHART        MOCLDY    45  25  45 NW5       30.21R
DUMAS          CLOUDY    42  22  44 W6        30.19S
GUYMON         MOCLDY    45  29  53 W9        30.18R
HEREFORD       PTCLDY    36  27  69 W8        30.20S WCI  29
PAMPA          MOCLDY    48  23  37 W6        30.17S
PERRYTON       MOCLDY    45  29  53 NW6       30.15S
$$

TXZ026-029-035-045-048-270700-
SOUTHERN PANHANDLE/SOUTH PLAINS/ROLLING PLAINS

CITY           SKY/WX    TMP DP  RH WIND       PRES   REMARKS
CHILDRESS      PTCLDY    50  25  37 SW14      30.14F
SEMINOLE       CLEAR     46  24  42 W9        30.23S
LUBBOCK        CLEAR     45  21  38 SW8       30.18F
PLAINVIEW      PTCLDY    40  26  56 W6        30.17S
SNYDER         CLEAR     45  26  47 S7        30.21F
$$

TXZ052-054-060>062-072-078-127-140-154-169-270700-
PERMIAN BASIN/CONCHO VALLEY/BIG COUNTRY/EDWARDS PLATEAU

CITY           SKY/WX    TMP DP  RH WIND       PRES   REMARKS
ABILENE        CLEAR     43  32  65 S7        30.19F
BIG SPRING     CLEAR     46  28  50 SE5       30.24S
BRADY          CLEAR     45  32  61 SW3       30.21S
BROWNWOOD      PTCLDY    41  34  75 CALM      30.20F
JUNCTION       CLEAR     43  34  70 W3        30.24S
MIDLAND        CLEAR     49  33  54 SW9       30.23S
ODESSA           N/A     47  32  56 SW6       30.25R
SAN ANGELO     CLEAR     43  32  65 SW5       30.23S
SONORA         CLEAR     39  36  87 CALM      30.29S
SWEETWATER     CLEAR     48  29  46 S12       30.22F
WINK           CLEAR     47  27  45 SW9       30.23F
$$

TXZ055-058-074-075-080-082-270700-
FAR WEST/SOUTHWEST MOUNTAINS/TRANS PECOS

CITY           SKY/WX    TMP DP  RH WIND       PRES   REMARKS
ALPINE         CLEAR     37  32  83 SW6       30.36S WCI  32
DRYDEN           N/A     51  38  60 NW7       30.25S
EL PASO        CLEAR     56  27  32 S3        30.24R
FORT STOCKTON  CLEAR     46  34  62 SW10      30.28R
GUADALUPE PASS CLEAR     48  25  40 SW12      30.29S
MARFA          CLEAR     36  30  80 N7        30.32S WCI  30
PECOS          CLEAR     43  33  69 S6        30.26S
PRESIDIO       FAIR      56  36  46 N7        30.26R
$$

TXZ014-016-019-021>030-083-270700
TEXAS TECH WEST TEXAS MESONET/TEXAS PANHANDLE/NORTHERN SOUTH PLAINS

CITY           SKY/WX    TMP DP  RH WIND       PRES   REMARKS
ABERNATHY 5ENE   N/A     40  21  46 W9        30.19S WCI  35
AMARILLO 9NNE    N/A     38  23  55 S5        30.19R WCI  35
AMARILLO 7SSE    N/A     37  24  57 W8        30.19S WCI  31
AMHERST 1NE      N/A     44  21  41 W8        30.20S
BOOTLEG 11WNW    N/A     42  19  40 SW13      30.22S
CANADIAN 6E      N/A     45  27  49 NW3       30.12F
CAPROCK CYN SP   N/A     50  21  32 NW6       30.16S
CHILDRESS 2NNE   N/A     51  24  35 SW13      30.13S
CLARENDON 2WSW   N/A     46  22  38 W5        30.16S
CLAUDE 12SW      N/A     50  20  30 SW2       30.18S
DIMMITT 2NE      N/A     45  20  37 SW9       30.20S
FLOYDADA 2NNE    N/A     39  20  46 SW7       30.17S WCI  34
FRIONA 2NE       N/A     38  23  53 W7        30.21S WCI  33
GOODLETT 3W      N/A     43  26  50 S9        30.12F
HART 3N          N/A     37  21  52 W8        30.19S WCI  31
HEREFORD 2NW     N/A     37  22  54 SW7       30.19F WCI  32
MCLEAN 1E        N/A     47  25  40 NW8       30.13S
MEMPHIS 1NE      N/A     52  23  33 W5        30.14S
MULESHOE 2SSW    N/A     33  24  71 W5        30.21S WCI  28
OLTON 6S         N/A     40  26  56 W10       30.20R WCI  34
PALO DURO SP     N/A     47  21  36 W9        30.20R
PAMPA 2E         N/A     48  26  40 W5        30.16S
PLAINVIEW 1S     N/A     43  25  48 W3        30.17F
SILVERTON 7ESE   N/A     40  24  53 W9        30.17S WCI  33
TULIA 2ENE       N/A     40  24  52 W8        30.18S
TURKEY 2WSW      N/A     50  23  35 W7        30.15R
UMBARGER 3NNE    N/A     41  21  45 W6        30.20S
$$

TXZ033>036-039>041-045>048-270700
TEXAS TECH WEST TEXAS MESONET/SOUTH PLAINS

CITY           SKY/WX    TMP DP  RH WIND       PRES   REMARKS
AIKEN 3WSW       N/A     41  24  49 W5        30.19S
ANDREWS 2NE      N/A     48  24  39 SW8       30.23F
ANTON 6SSW       N/A     42  17  36 W8        30.20S
BROWNFIELD 2S    N/A     43  18  36 W9        30.21S
DENVR CTY 7WNW   N/A     44  20  37 SW9       30.21F
GAIL 2ESE        N/A     46  26  45 SW10      30.19F
LAMESA 2SE       N/A     40  28  60 SW9       30.22S WCI  34
LEVELLAND 4S     N/A     38  17  42 SW9       30.20S WCI  31
LUBBOCK 3WNW     N/A     47  16  28 SW6       30.19F
MORTON 1ENE      N/A     43  18  37 W7        30.20F
ODONNELL 1N      N/A     40  22  48 SW5       30.20F
PLAINS 3N        N/A     37  21  52 W6        30.22S WCI  32
RALLS 1SE        N/A     43  19  38 SW10      30.19S
REESE CENTER     N/A     43  15  32 W9        30.19F
SEAGRAVES 1SW    N/A     40  20  45 SW6       30.22S
SEMINOLE 2NNE    N/A     48  21  34 SW9       30.22S
SLATON 2NE       N/A     47  16  29 SW8       30.18F
SNYDER 3E        N/A     46  27  49 S9        30.19F
SUNDOWN 8SW      N/A     37  19  48 W10       30.21S WCI  30
TAHOKA 3NNE      N/A     43  20  39 SW9       30.19S
WOLFFORTH 6SSW   N/A     42  19  39 W7        30.20S
$$

TXZ031-032-036>038-042>044-270700-
TEXAS TECH WEST TEXAS MESONET/ROLLING PLAINS

CITY           SKY/WX    TMP DP  RH WIND       PRES   REMARKS
ASPERMONT 3NE    N/A     44  29  56 S8        30.17F
FLUVANNA 3WNW    N/A     45  22  39 S1        30.20S
GRAHAM 5SSW      N/A     49  15  25 SW9       30.19F
GUTHRIE 10WSW    N/A     46  28  49 SW5       30.15F
HASKELL 1NW      N/A     40  33  74 SW7       30.16F
JAYTON 1SSE      N/A     46  27  46 S6        30.17F
KNOX CITY 3NW    N/A     41  33  73 SW5       30.16F
LK A HENRY 1NW   N/A     46  28  51 SW7       30.18F
NORTHFIELD 1S    N/A     44  26  51 SW6       30.15R
ODELL 4ENE       N/A     44  33  65 SW7       30.13F
PADUCAH 10SW     N/A     50  26  38 SW14      30.14F
POST 1NE         N/A     48  20  33 SW6       30.18F
RRING SPRGS 3N   N/A     44  24  46 W8        30.16F
SEYMOUR 3NW      N/A     43  35  72 S2        30.14F
SPUR 1W          N/A     44  26  47 SW6       30.16F
WEINERT 2NNE     N/A     46  32  59 S9        30.16F
WHITE RVR 6NE    N/A     50  20  31 SW5       30.17F
$$

TXZ052-054-060>062-072-078-127-140-154-169-270700-
TEXAS TECH WEST TEXAS MESONET/PERMIAN BASIN/
CONCHO VALLEY/BIG COUNTRY/EDWARDS PLATEAU

CITY           SKY/WX    TMP DP  RH WIND       PRES   REMARKS
COYANOSA 2N      N/A     43  32  65 S9        30.26S
JUNCTION 1SSW    N/A     37  33  85 S5        30.25F WCI  34
MERTZON 3NNE     N/A     39  34  82 SW5       30.26R
SAN ANGELO 7NW   N/A     45  32  60 SW1       30.24S
STRLNG CT 4WSW   N/A     41  33  75 N2        30.24S
ST LAWRNCE 5SW   N/A     43  31  63 S7        30.24S
SWEETWATR 11SW   N/A     44  28  52 S6        30.21F
WALL 1E          N/A     45  30  55 S8        30.23S
$$

TXZ055-058-074-075-080-082-270700-
TEXAS TECH WEST TEXAS MESONET/FAR WEST/SOUTHWEST MOUNTAINS/TRANS PECOS

CITY           SKY/WX    TMP DP  RH WIND       PRES   REMARKS
PRSMN GAP BBNP   N/A     52  35  52 NE5       30.27F
$$



USA.gov is the U.S. government's official web portal to all federal, state and local government web resources and services.